Location: Newark
(31.5350°N, 35.0986°E)
Time: 14:21:45
(UTC+00:00)

SR - Pass Details

Date: 19 October 2019
Orbit: 574 x 882 km, 66.7° (Epoch: 14 November)

Event Time Altitude Azimuth Distance (km) Brightness Sun altitude
Rises 19:01:34 0° 194° (SSW) 2,932 - -50.6°
Reaches altitude 10° 19:03:47 10° 190° (S) 2,068 - -51.0°
Maximum altitude 19:08:23 58° 112° (ESE) 816 - -51.9°
Drops below altitude 10° 19:13:29 10° 33° (NNE) 2,279 - -52.9°
Sets 19:16:01 0° 30° (NNE) 3,260 - -53.3°
